This demonstration page uses our WeatherBlox Daily Observations layout. Learn more.

38.89511, -77.03637

Hourly Observations for November 16, 2017

Temp ( °F °C ) Dew Point ( °F °C ) Humidity (%) Winds ( mph kmh ) Pressure ( in mb ) Visibility ( mi km ) Precip ( " mm )
12:30 am 00:30 Cloudy with Light Rain 50 10 42 5.6 74 74 SSW 6 9 30.03 1017 10 16.09344 0.001 0.001
12:52 am 00:52 Cloudy with Light Rain 49 9.4 42 5.6 77 77 S 3 6 30 1016 10 16.09344 0.001 0.001
1:52 am 01:52 Cloudy 49 9.4 42 5.6 77 77 S 6 9 29.97 1015 10 16.09344 0.001 0.001
2:52 am 02:52 Cloudy 48 8.9 43 6.1 83 83 S 7 11 29.97 1015 10 16.09344 0.001 0.001
3:52 am 03:52 Cloudy 48 8.9 42 5.6 80 80 SSW 10 17 29.94 1014 10 16.09344 0 0
4:52 am 04:52 Mostly Cloudy 48 8.9 41 5 77 77 SSW 7 11 29.94 1014 10 16.09344 0 0
5:52 am 05:52 Mostly Clear 45 7.2 39 3.9 80 80 SSW 7 11 29.91 1013 10 16.09344 0 0
6:52 am 06:52 Mostly Clear 44 6.7 39 3.9 83 83 S 7 11 29.91 1013 10 16.09344 0 0
7:52 am 07:52 Mostly Sunny 46 7.8 39 3.9 77 77 SW 6 9 29.94 1014 10 16.09344 0 0
8:52 am 08:52 Mostly Sunny 49 9.4 40 4.4 71 71 S 6 9 29.94 1014 10 16.09344 0 0
9:52 am 09:52 Partly Cloudy 51 10.6 42 5.6 71 71 S 9 15 29.91 1013 10 16.09344 0 0
10:52 am 10:52 Partly Cloudy 51 10.6 43 6.1 74 74 S 10 17 29.91 1013 10 16.09344 0 0
11:52 am 11:52 Mostly Cloudy 56 13.3 44 6.7 65 65 SSE 13 20 29.88 1012 10 16.09344 0 0
12:47 pm 12:47 Mostly Cloudy 63 17 39 4 42 42 WSW 12 19 29.88 1012 10 16.09344 0 0
12:52 pm 12:52 Mostly Cloudy 62 16.7 39 3.9 43 43 WSW 15 24 29.85 1011 10 16.09344 0 0
1:52 pm 13:52 Mostly Cloudy 64 17.8 35 1.7 34 34 NW 13 20 29.85 1011 10 16.09344 0 0
2:52 pm 14:52 Partly Cloudy 62 16.7 34 1.1 35 35 NW 17 28 29.88 1012 10 16.09344 0 0
3:52 pm 15:52 Mostly Sunny 60 15.6 34 1.1 38 38 NNW 14 22 29.91 1013 10 16.09344 0 0
4:52 pm 16:52 Mostly Sunny 56 13.3 31 -0.6 39 39 NW 16 26 29.94 1014 10 16.09344 0 0
5:52 pm 17:52 Mostly Clear 53 11.7 31 -0.6 43 43 NW 17 28 30 1016 10 16.09344 0 0
6:52 pm 18:52 Mostly Clear 49 9.4 32 0 52 52 NNW 20 31 30.03 1017 10 16.09344 0 0
7:52 pm 19:52 Mostly Cloudy 48 8.9 32 0 54 54 NNW 20 31 30.06 1018 10 16.09344 0 0
8:52 pm 20:52 Cloudy 48 8.9 32 0 54 54 NNW 20 31 30.09 1019 10 16.09344 0 0
9:52 pm 21:52 Mostly Cloudy 47 8.3 31 -0.6 54 54 NNW 14 22 30.09 1019 10 16.09344 0 0
10:52 pm 22:52 Cloudy 47 8.3 30 -1.1 52 52 WNW 9 15 30.09 1019 10 16.09344 0 0
11:52 pm 23:52 Cloudy 47 8.3 30 -1.1 52 52 W 9 15 30.09 1019 10 16.09344 0 0

Powered by AerisWeather